Time,TemperatureF,DewpointF,PressureIn,WindDirection,WindDirectionDegrees,WindSpeedMPH,WindSpeedGustMPH,Humidity,HourlyPrecipIn,Conditions,Clouds,dailyrainin,SoftwareType,DateUTC
2013-03-24 00:00:00,32.5,22.4,29.99,NE,38,0.0,1.0,66,0.00,,---,0.00,VWS V14.01,2013-03-24 04:00:00,
2013-03-24 00:05:00,32.2,22.1,29.99,NNE,13,0.0,3.0,66,0.00,,---,0.00,VWS V14.01,2013-03-24 04:05:00,
2013-03-24 08:54:00,29.7,21.5,29.88,NW,324,2.0,3.0,71,0.00,,---,0.00,VWS V14.01,2013-03-24 12:54:00,
2013-03-24 08:59:00,30.0,21.8,29.88,ENE,65,5.0,9.0,71,0.00,,---,0.00,VWS V14.01,2013-03-24 12:59:00,
2013-03-24 09:00:00,30.0,21.8,29.88,NNE,32,2.0,9.0,71,0.00,,---,0.00,VWS V14.01,2013-03-24 13:00:00,
2013-03-24 09:04:00,30.2,21.6,29.87,NE,44,2.0,5.0,70,0.00,,---,0.00,VWS V14.01,2013-03-24 13:04:00,
2013-03-24 09:09:00,30.3,21.7,29.87,North,351,1.0,1.0,70,0.00,,---,0.00,VWS V14.01,2013-03-24 13:09:00,
2013-03-24 09:10:00,30.3,21.7,29.87,NNW,339,0.0,7.0,70,0.00,,---,0.00,VWS V14.01,2013-03-24 13:10:00,
2013-03-24 09:14:00,30.6,21.6,29.87,North,360,0.0,5.0,69,0.00,,---,0.00,VWS V14.01,2013-03-24 13:14:00,
2013-03-24 09:19:00,30.8,21.9,29.87,East,82,0.0,2.0,69,0.00,,---,0.00,VWS V14.01,2013-03-24 13:19:00,
2013-03-24 09:20:00,30.8,21.9,29.87,NNE,27,2.0,6.0,69,0.00,,---,0.00,VWS V14.01,2013-03-24 13:20:00,
2013-03-24 09:24:00,31.0,21.7,29.88,NW,322,4.0,9.0,68,0.00,,---,0.00,VWS V14.01,2013-03-24 13:24:00,
2013-03-24 09:29:00,31.2,21.9,29.87,NE,42,2.0,3.0,68,0.00,,---,0.00,VWS V14.01,2013-03-24 13:29:00,
2013-03-24 09:30:00,31.2,21.9,29.87,NE,46,1.0,9.0,68,0.00,,---,0.00,VWS V14.01,2013-03-24 13:30:00,
2013-03-24 09:34:00,31.4,21.7,29.86,NNW,341,2.0,5.0,67,0.00,,---,0.00,VWS V14.01,2013-03-24 13:34:00,
2013-03-24 09:39:00,31.7,22.0,29.86,North,11,6.0,6.0,67,0.00,,---,0.00,VWS V14.01,2013-03-24 13:39:00,
2013-03-24 09:40:00,31.7,22.0,29.86,NNW,339,1.0,7.0,67,0.00,,---,0.00,VWS V14.01,2013-03-24 13:40:00,
2013-03-24 09:44:00,31.9,21.9,29.86,NW,313,3.0,6.0,66,0.00,,---,0.00,VWS V14.01,2013-03-24 13:44:00,
2013-03-24 09:49:00,32.2,22.1,29.85,NW,317,2.0,5.0,66,0.00,,---,0.00,VWS V14.01,2013-03-24 13:49:00,
2013-03-24 09:50:00,32.2,22.1,29.85,NE,53,3.0,7.0,66,0.00,,---,0.00,VWS V14.01,2013-03-24 13:50:00,
2013-03-24 09:54:00,32.4,22.0,29.84,NE,34,2.0,10.0,65,0.00,,---,0.00,VWS V14.01,2013-03-24 13:54:00,
2013-03-24 09:59:00,32.8,22.3,29.83,NNW,339,3.0,5.0,65,0.00,,---,0.00,VWS V14.01,2013-03-24 13:59:00,
2013-03-24 10:00:00,32.8,22.3,29.84,ENE,58,5.0,10.0,65,0.00,,---,0.00,VWS V14.01,2013-03-24 14:00:00,
2013-03-24 10:04:00,33.2,22.4,29.83,NNE,30,3.0,8.0,64,0.00,,---,0.00,VWS V14.01,2013-03-24 14:04:00,
2013-03-24 10:10:00,33.5,21.9,29.83,North,350,2.0,2.0,62,0.00,,---,0.00,VWS V14.01,2013-03-24 14:10:00,
2013-03-24 10:15:00,33.9,22.3,29.82,NE,49,4.0,7.0,62,0.00,,---,0.00,VWS V14.01,2013-03-24 14:15:00,
2013-03-24 10:20:00,34.1,21.7,29.82,ENE,65,8.0,9.0,60,0.00,,---,0.00,VWS V14.01,2013-03-24 14:20:00,
2013-03-24 10:25:00,34.3,22.3,29.81,ENE,59,2.0,11.0,61,0.00,,---,0.00,VWS V14.01,2013-03-24 14:25:00,
2013-03-24 10:30:00,34.4,22.0,29.81,ENE,65,2.0,6.0,60,0.00,,---,0.00,VWS V14.01,2013-03-24 14:30:00,
2013-03-24 10:35:00,34.5,21.7,29.80,NNW,344,3.0,9.0,59,0.00,,---,0.00,VWS V14.01,2013-03-24 14:35:00,
2013-03-24 10:40:00,34.7,21.9,29.80,NE,35,4.0,5.0,59,0.00,,---,0.00,VWS V14.01,2013-03-24 14:40:00,
2013-03-24 10:45:00,35.0,22.1,29.80,NE,36,2.0,5.0,59,0.00,,---,0.00,VWS V14.01,2013-03-24 14:45:00,
2013-03-24 10:50:00,35.4,22.1,29.80,NNE,24,2.0,5.0,58,0.00,,---,0.00,VWS V14.01,2013-03-24 14:50:00,
2013-03-24 10:55:00,35.7,22.0,29.79,ENE,67,0.0,6.0,57,0.00,,---,0.00,VWS V14.01,2013-03-24 14:55:00,
2013-03-24 11:00:00,36.1,21.9,29.79,NE,53,2.0,5.0,56,0.00,,---,0.00,VWS V14.01,2013-03-24 15:00:00,
2013-03-24 11:05:00,36.5,22.3,29.79,ENE,65,3.0,5.0,56,0.00,,---,0.00,VWS V14.01,2013-03-24 15:05:00,
2013-03-24 11:10:00,37.0,22.4,29.79,NNE,22,3.0,3.0,55,0.00,,---,0.00,VWS V14.01,2013-03-24 15:10:00,
2013-03-24 11:15:00,37.4,22.3,29.79,North,355,2.0,4.0,54,0.00,,---,0.00,VWS V14.01,2013-03-24 15:15:00,
2013-03-24 11:20:00,37.7,22.6,29.79,NE,36,0.0,1.0,54,0.00,,---,0.00,VWS V14.01,2013-03-24 15:20:00,
2013-03-24 11:25:00,37.9,21.9,29.78,NE,36,1.0,3.0,52,0.00,,---,0.00,VWS V14.01,2013-03-24 15:25:00,
2013-03-24 11:30:00,38.3,22.2,29.78,NE,35,0.0,0.0,52,0.00,,---,0.00,VWS V14.01,2013-03-24 15:30:00,
2013-03-24 11:35:00,38.8,22.7,29.78,SW,229,0.0,1.0,52,0.00,,---,0.00,VWS V14.01,2013-03-24 15:35:00,
2013-03-24 11:40:00,39.2,22.6,29.78,WSW,252,0.0,0.0,51,0.00,,---,0.00,VWS V14.01,2013-03-24 15:40:00,
2013-03-24 11:45:00,39.4,21.8,29.78,WSW,252,0.0,2.0,49,0.00,,---,0.00,VWS V14.01,2013-03-24 15:45:00,
2013-03-24 11:50:00,39.7,20.6,29.78,SSW,203,0.0,1.0,46,0.00,,---,0.00,VWS V14.01,2013-03-24 15:50:00,
2013-03-24 11:55:00,39.7,20.1,29.77,South,185,9.0,12.0,45,0.00,,---,0.00,VWS V14.01,2013-03-24 15:55:00,
2013-03-24 12:00:00,39.4,19.8,29.76,SE,140,6.0,15.0,45,0.00,,---,0.00,VWS V14.01,2013-03-24 16:00:00,
2013-03-24 12:05:00,39.6,21.5,29.76,SSE,161,4.0,15.0,48,0.00,,---,0.00,VWS V14.01,2013-03-24 16:05:00,
2013-03-24 12:10:00,39.7,21.1,29.75,SSE,162,7.0,8.0,47,0.00,,---,0.00,VWS V14.01,2013-03-24 16:10:00,
2013-03-24 12:15:00,39.8,20.7,29.75,ESE,123,1.0,8.0,46,0.00,,---,0.00,VWS V14.01,2013-03-24 16:15:00,
2013-03-24 12:20:00,40.1,21.0,29.74,SSE,148,6.0,6.0,46,0.00,,---,0.00,VWS V14.01,2013-03-24 16:20:00,
2013-03-24 12:25:00,40.2,21.1,29.73,ENE,69,5.0,9.0,46,0.00,,---,0.00,VWS V14.01,2013-03-24 16:25:00,
2013-03-24 12:30:00,40.3,21.2,29.73,ESE,113,5.0,7.0,46,0.00,,---,0.00,VWS V14.01,2013-03-24 16:30:00,
2013-03-24 12:35:00,40.4,21.3,29.72,East,96,2.0,11.0,46,0.00,,---,0.00,VWS V14.01,2013-03-24 16:35:00,
2013-03-24 12:40:00,40.6,21.5,29.71,ESE,117,1.0,4.0,46,0.00,,---,0.00,VWS V14.01,2013-03-24 16:40:00,
2013-03-24 12:45:00,41.0,21.3,29.71,NE,36,5.0,9.0,45,0.00,,---,0.00,VWS V14.01,2013-03-24 16:45:00,
2013-03-24 12:50:00,40.9,21.7,29.71,ENE,66,3.0,5.0,46,0.00,,---,0.00,VWS V14.01,2013-03-24 16:50:00,
2013-03-24 12:55:00,41.0,21.8,29.70,ESE,105,1.0,12.0,46,0.00,,---,0.00,VWS V14.01,2013-03-24 16:55:00,
2013-03-24 13:00:00,41.3,21.6,29.70,East,89,3.0,7.0,45,0.00,,---,0.00,VWS V14.01,2013-03-24 17:00:00,
2013-03-24 13:05:00,41.2,21.5,29.70,ESE,107,2.0,7.0,45,0.00,,---,0.00,VWS V14.01,2013-03-24 17:05:00,
2013-03-24 13:10:00,41.3,21.6,29.70,NNE,15,2.0,5.0,45,0.00,,---,0.00,VWS V14.01,2013-03-24 17:10:00,
2013-03-24 13:15:00,41.2,21.0,29.70,NE,49,1.0,7.0,44,0.00,,---,0.00,VWS V14.01,2013-03-24 17:15:00,
2013-03-24 13:20:00,41.2,21.0,29.70,ENE,70,3.0,12.0,44,0.00,,---,0.00,VWS V14.01,2013-03-24 17:20:00,
2013-03-24 13:25:00,41.0,20.8,29.70,South,176,1.0,12.0,44,0.00,,---,0.00,VWS V14.01,2013-03-24 17:25:00,
2013-03-24 13:30:00,41.0,20.8,29.70,ESE,116,9.0,9.0,44,0.00,,---,0.00,VWS V14.01,2013-03-24 17:30:00,
2013-03-24 13:36:00,40.9,21.2,29.70,ESE,112,5.0,9.0,45,0.00,,---,0.00,VWS V14.01,2013-03-24 17:36:00,
2013-03-24 13:40:00,40.9,20.7,29.70,East,96,2.0,9.0,44,0.00,,---,0.00,VWS V14.01,2013-03-24 17:40:00,
2013-03-24 13:41:00,41.0,20.8,29.69,ESE,103,2.0,2.0,44,0.00,,---,0.00,VWS V14.01,2013-03-24 17:41:00,
2013-03-24 13:46:00,41.1,20.9,29.70,ESE,103,4.0,6.0,44,0.00,,---,0.00,VWS V14.01,2013-03-24 17:46:00,
2013-03-24 13:50:00,41.2,21.0,29.69,SSE,153,6.0,10.0,44,0.00,,---,0.00,VWS V14.01,2013-03-24 17:50:00,
2013-03-24 13:51:00,41.1,20.3,29.69,East,93,5.0,10.0,43,0.00,,---,0.00,VWS V14.01,2013-03-24 17:51:00,
2013-03-24 13:56:00,41.0,21.3,29.69,ESE,115,2.0,10.0,45,0.00,,---,0.00,VWS V14.01,2013-03-24 17:56:00,
2013-03-24 14:00:00,41.0,20.8,29.69,SSE,149,5.0,10.0,44,0.00,,---,0.00,VWS V14.01,2013-03-24 18:00:00,
2013-03-24 14:01:00,40.9,20.7,29.69,East,100,5.0,6.0,44,0.00,,---,0.00,VWS V14.01,2013-03-24 18:01:00,
2013-03-24 14:06:00,40.9,20.7,29.69,ESE,119,2.0,6.0,44,0.00,,---,0.00,VWS V14.01,2013-03-24 18:06:00,
2013-03-24 14:10:00,40.8,20.6,29.69,South,180,2.0,7.0,44,0.00,,---,0.00,VWS V14.01,2013-03-24 18:10:00,
2013-03-24 14:11:00,40.8,20.6,29.69,West,261,0.0,7.0,44,0.00,,---,0.00,VWS V14.01,2013-03-24 18:11:00,
2013-03-24 14:16:00,40.7,20.0,29.69,South,188,4.0,7.0,43,0.00,,---,0.00,VWS V14.01,2013-03-24 18:16:00,
2013-03-24 14:20:00,40.8,20.6,29.69,SE,142,5.0,7.0,44,0.00,,---,0.00,VWS V14.01,2013-03-24 18:20:00,
2013-03-24 14:21:00,40.8,21.1,29.69,SE,146,5.0,5.0,45,0.00,,---,0.00,VWS V14.01,2013-03-24 18:21:00,
2013-03-24 14:26:00,40.8,20.6,29.69,SE,128,2.0,6.0,44,0.00,,---,0.00,VWS V14.01,2013-03-24 18:26:00,
2013-03-24 14:30:00,40.8,20.6,29.68,ESE,107,8.0,8.0,44,0.00,,---,0.00,VWS V14.01,2013-03-24 18:30:00,
2013-03-24 14:31:00,40.8,20.6,29.68,East,96,4.0,8.0,44,0.00,,---,0.00,VWS V14.01,2013-03-24 18:31:00,
2013-03-24 14:37:00,40.7,20.0,29.68,ESE,111,4.0,8.0,43,0.00,,---,0.00,VWS V14.01,2013-03-24 18:37:00,
2013-03-24 14:40:00,40.6,20.4,29.68,SSE,154,4.0,8.0,44,0.00,,---,0.00,VWS V14.01,2013-03-24 18:40:00,
2013-03-24 14:42:00,40.7,21.0,29.68,ESE,107,0.0,5.0,45,0.00,,---,0.00,VWS V14.01,2013-03-24 18:42:00,
2013-03-24 14:47:00,40.9,20.7,29.67,East,100,4.0,8.0,44,0.00,,---,0.00,VWS V14.01,2013-03-24 18:47:00,
2013-03-24 14:50:00,40.8,20.0,29.67,East,89,1.0,8.0,43,0.00,,---,0.00,VWS V14.01,2013-03-24 18:50:00,
2013-03-24 14:52:00,40.8,20.6,29.68,SE,142,4.0,5.0,44,0.00,,---,0.00,VWS V14.01,2013-03-24 18:52:00,
2013-03-24 14:57:00,40.9,20.7,29.68,ENE,63,2.0,5.0,44,0.00,,---,0.00,VWS V14.01,2013-03-24 18:57:00,
2013-03-24 15:00:00,40.9,21.2,29.68,ENE,76,2.0,5.0,45,0.00,,---,0.00,VWS V14.01,2013-03-24 19:00:00,
2013-03-24 15:02:00,40.9,21.2,29.67,ESE,103,4.0,9.0,45,0.00,,---,0.00,VWS V14.01,2013-03-24 19:02:00,
2013-03-24 15:07:00,41.0,21.3,29.68,SE,132,0.0,9.0,45,0.00,,---,0.00,VWS V14.01,2013-03-24 19:07:00,
2013-03-24 15:10:00,41.1,21.4,29.67,SE,130,4.0,9.0,45,0.00,,---,0.00,VWS V14.01,2013-03-24 19:10:00,
2013-03-24 15:12:00,41.3,21.0,29.67,SSE,159,7.0,7.0,44,0.00,,---,0.00,VWS V14.01,2013-03-24 19:12:00,
2013-03-24 15:17:00,41.3,21.0,29.67,WSW,241,0.0,10.0,44,0.00,,---,0.00,VWS V14.01,2013-03-24 19:17:00,
2013-03-24 15:20:00,41.4,21.1,29.67,ESE,105,0.0,10.0,44,0.00,,---,0.00,VWS V14.01,2013-03-24 19:20:00,
2013-03-24 15:22:00,41.3,21.0,29.67,SE,126,7.0,8.0,44,0.00,,---,0.00,VWS V14.01,2013-03-24 19:22:00,
2013-03-24 15:27:00,41.3,20.5,29.67,West,263,0.0,8.0,43,0.00,,---,0.00,VWS V14.01,2013-03-24 19:27:00,
2013-03-24 15:30:00,41.4,21.1,29.67,ESE,110,6.0,8.0,44,0.00,,---,0.00,VWS V14.01,2013-03-24 19:30:00,
2013-03-24 15:32:00,41.5,21.2,29.67,ESE,123,4.0,7.0,44,0.00,,---,0.00,VWS V14.01,2013-03-24 19:32:00,
2013-03-24 15:37:00,41.5,21.2,29.67,SE,133,8.0,9.0,44,0.00,,---,0.00,VWS V14.01,2013-03-24 19:37:00,
2013-03-24 15:40:00,41.6,21.3,29.67,ESE,103,2.0,13.0,44,0.00,,---,0.00,VWS V14.01,2013-03-24 19:40:00,
2013-03-24 15:42:00,41.7,21.4,29.67,East,84,1.0,5.0,44,0.00,,---,0.00,VWS V14.01,2013-03-24 19:42:00,
2013-03-24 15:47:00,41.9,21.6,29.67,ESE,109,1.0,7.0,44,0.00,,---,0.00,VWS V14.01,2013-03-24 19:47:00,
2013-03-24 15:50:00,42.0,22.2,29.67,SE,129,5.0,8.0,45,0.00,,---,0.00,VWS V14.01,2013-03-24 19:50:00,
2013-03-24 15:52:00,41.9,21.6,29.67,ESE,117,4.0,6.0,44,0.00,,---,0.00,VWS V14.01,2013-03-24 19:52:00,
2013-03-24 15:57:00,41.8,21.5,29.67,SSE,155,6.0,9.0,44,0.00,,---,0.00,VWS V14.01,2013-03-24 19:57:00,
2013-03-24 16:00:00,41.6,21.9,29.67,South,178,6.0,9.0,45,0.00,,---,0.00,VWS V14.01,2013-03-24 20:00:00,
2013-03-24 16:02:00,41.5,22.8,29.66,SSE,155,2.0,9.0,47,0.00,,---,0.00,VWS V14.01,2013-03-24 20:02:00,
2013-03-24 16:07:00,41.1,21.4,29.66,ESE,119,4.0,11.0,45,0.00,,---,0.00,VWS V14.01,2013-03-24 20:07:00,
2013-03-24 16:10:00,41.2,22.0,29.66,ESE,109,4.0,11.0,46,0.00,,---,0.00,VWS V14.01,2013-03-24 20:10:00,
2013-03-24 16:12:00,41.0,21.8,29.65,SE,132,8.0,9.0,46,0.00,,---,0.00,VWS V14.01,2013-03-24 20:12:00,
2013-03-24 16:17:00,40.8,22.1,29.66,SSE,157,7.0,13.0,47,0.00,,---,0.00,VWS V14.01,2013-03-24 20:17:00,
2013-03-24 16:20:00,40.8,22.1,29.65,SSE,152,6.0,13.0,47,0.00,,---,0.00,VWS V14.01,2013-03-24 20:20:00,
2013-03-24 16:22:00,40.8,22.1,29.65,SSE,147,7.0,9.0,47,0.00,,---,0.00,VWS V14.01,2013-03-24 20:22:00,
2013-03-24 16:27:00,40.6,22.0,29.65,SE,136,2.0,11.0,47,0.00,,---,0.00,VWS V14.01,2013-03-24 20:27:00,
2013-03-24 16:30:00,40.6,22.5,29.65,SE,137,4.0,11.0,48,0.00,,---,0.00,VWS V14.01,2013-03-24 20:30:00,
2013-03-24 16:33:00,40.6,21.5,29.65,ESE,123,6.0,11.0,46,0.00,,---,0.00,VWS V14.01,2013-03-24 20:33:00,
2013-03-24 16:38:00,40.3,21.7,29.65,SE,134,6.0,11.0,47,0.00,,---,0.00,VWS V14.01,2013-03-24 20:38:00,
2013-03-24 16:40:00,40.2,21.6,29.65,SE,126,7.0,11.0,47,0.00,,---,0.00,VWS V14.01,2013-03-24 20:40:00,
2013-03-24 16:44:00,40.0,21.4,29.65,SSE,155,6.0,13.0,47,0.00,,---,0.00,VWS V14.01,2013-03-24 20:44:00,
2013-03-24 16:49:00,39.9,22.3,29.64,SE,139,7.0,13.0,49,0.00,,---,0.00,VWS V14.01,2013-03-24 20:49:00,
2013-03-24 16:50:00,39.9,22.3,29.64,SE,125,6.0,13.0,49,0.00,,---,0.00,VWS V14.01,2013-03-24 20:50:00,
2013-03-24 16:54:00,39.9,22.3,29.64,ESE,119,4.0,7.0,49,0.00,,---,0.00,VWS V14.01,2013-03-24 20:54:00,
2013-03-24 16:59:00,39.6,22.0,29.63,SE,144,9.0,14.0,49,0.00,,---,0.00,VWS V14.01,2013-03-24 20:59:00,
2013-03-24 17:00:00,39.6,22.0,29.63,SE,130,9.0,14.0,49,0.00,,---,0.00,VWS V14.01,2013-03-24 21:00:00,
2013-03-24 17:04:00,39.5,22.9,29.63,SE,128,1.0,12.0,51,0.00,,---,0.00,VWS V14.01,2013-03-24 21:04:00,
2013-03-24 17:09:00,39.5,22.9,29.63,South,180,6.0,12.0,51,0.00,,---,0.00,VWS V14.01,2013-03-24 21:09:00,
2013-03-24 17:10:00,39.5,22.9,29.63,SE,146,10.0,12.0,51,0.00,,---,0.00,VWS V14.01,2013-03-24 21:10:00,
2013-03-24 17:14:00,39.1,23.4,29.63,SE,134,11.0,12.0,53,0.00,,---,0.00,VWS V14.01,2013-03-24 21:14:00,
2013-03-24 17:19:00,38.8,24.0,29.63,East,90,2.0,12.0,55,0.00,,---,0.00,VWS V14.01,2013-03-24 21:19:00,
2013-03-24 17:20:00,38.8,24.0,29.63,East,80,2.0,12.0,55,0.00,,---,0.00,VWS V14.01,2013-03-24 21:20:00,
2013-03-24 17:24:00,38.6,24.3,29.63,East,96,7.0,11.0,56,0.00,,---,0.00,VWS V14.01,2013-03-24 21:24:00,
2013-03-24 17:29:00,38.4,24.5,29.63,SE,136,5.0,11.0,57,0.00,,---,0.00,VWS V14.01,2013-03-24 21:29:00,
2013-03-24 17:30:00,38.4,24.5,29.63,SE,133,6.0,11.0,57,0.00,,---,0.00,VWS V14.01,2013-03-24 21:30:00,
2013-03-24 17:34:00,38.2,25.1,29.63,SSE,148,8.0,12.0,59,0.00,,---,0.00,VWS V14.01,2013-03-24 21:34:00,
2013-03-24 17:39:00,38.0,25.8,29.63,SSE,151,6.0,12.0,61,0.00,,---,0.00,VWS V14.01,2013-03-24 21:39:00,
2013-03-24 17:40:00,38.0,25.8,29.63,SE,129,6.0,12.0,61,0.00,,---,0.00,VWS V14.01,2013-03-24 21:40:00,
2013-03-24 17:44:00,37.9,25.7,29.63,ESE,103,2.0,6.0,61,0.00,,---,0.00,VWS V14.01,2013-03-24 21:44:00,
2013-03-24 17:49:00,37.7,25.9,29.63,ESE,110,0.0,9.0,62,0.00,,---,0.00,VWS V14.01,2013-03-24 21:49:00,
2013-03-24 17:50:00,37.7,25.9,29.63,ESE,110,0.0,9.0,62,0.00,,---,0.00,VWS V14.01,2013-03-24 21:50:00,
2013-03-24 17:54:00,37.5,26.1,29.63,South,169,2.0,7.0,63,0.00,,---,0.00,VWS V14.01,2013-03-24 21:54:00,
2013-03-24 17:59:00,37.1,26.4,29.63,SSE,148,5.0,9.0,65,0.00,,---,0.00,VWS V14.01,2013-03-24 21:59:00,
2013-03-24 18:00:00,37.1,26.4,29.63,SSE,148,5.0,9.0,65,0.00,,---,0.00,VWS V14.01,2013-03-24 22:00:00,
2013-03-24 18:04:00,36.5,27.0,29.63,SSE,160,2.0,10.0,68,0.00,,---,0.00,VWS V14.01,2013-03-24 22:04:00,
2013-03-24 18:09:00,36.0,27.5,29.63,East,98,2.0,10.0,71,0.00,,---,0.00,VWS V14.01,2013-03-24 22:09:00,
2013-03-24 18:10:00,36.0,27.5,29.63,East,98,2.0,10.0,71,0.00,,---,0.00,VWS V14.01,2013-03-24 22:10:00,
2013-03-24 18:14:00,35.6,28.1,29.63,East,94,1.0,7.0,74,0.00,,---,0.00,VWS V14.01,2013-03-24 22:14:00,
2013-03-24 18:19:00,35.0,28.2,29.63,ESE,123,1.0,7.0,76,0.00,,---,0.00,VWS V14.01,2013-03-24 22:19:00,
2013-03-24 18:20:00,35.0,28.2,29.63,ESE,123,1.0,7.0,76,0.00,,---,0.00,VWS V14.01,2013-03-24 22:20:00,
2013-03-24 18:24:00,34.5,28.7,29.63,ESE,116,2.0,2.0,79,0.00,,---,0.00,VWS V14.01,2013-03-24 22:24:00,
2013-03-24 18:29:00,34.2,28.7,29.63,East,96,0.0,0.0,80,0.00,,---,0.00,VWS V14.01,2013-03-24 22:29:00,
2013-03-24 18:30:00,34.2,28.7,29.63,East,87,0.0,5.0,80,0.00,,---,0.00,VWS V14.01,2013-03-24 22:30:00,
2013-03-24 18:34:00,33.9,29.0,29.62,East,92,2.0,4.0,82,0.00,,---,0.00,VWS V14.01,2013-03-24 22:34:00,
2013-03-24 18:39:00,33.6,29.0,29.62,ESE,115,0.0,0.0,83,0.00,,---,0.00,VWS V14.01,2013-03-24 22:39:00,
2013-03-24 18:40:00,33.7,29.1,29.62,ESE,112,0.0,5.0,83,0.00,,---,0.00,VWS V14.01,2013-03-24 22:40:00,
2013-03-24 18:44:00,33.5,29.2,29.63,West,261,0.0,1.0,84,0.00,,---,0.00,VWS V14.01,2013-03-24 22:44:00,
2013-03-24 18:49:00,33.3,29.6,29.63,ENE,57,4.0,4.0,86,0.00,,---,0.00,VWS V14.01,2013-03-24 22:49:00,
2013-03-24 18:50:00,33.3,29.6,29.63,NE,55,4.0,4.0,86,0.00,,---,0.00,VWS V14.01,2013-03-24 22:50:00,
2013-03-24 18:54:00,33.0,29.6,29.62,NE,50,1.0,4.0,87,0.00,,---,0.00,VWS V14.01,2013-03-24 22:54:00,
2013-03-24 18:59:00,32.7,29.5,29.62,NNE,27,2.0,2.0,88,0.00,,---,0.00,VWS V14.01,2013-03-24 22:59:00,
2013-03-24 19:00:00,32.7,29.5,29.62,NNW,340,2.0,4.0,88,0.00,,---,0.00,VWS V14.01,2013-03-24 23:00:00,
2013-03-24 19:04:00,32.6,29.7,29.62,ENE,59,2.0,4.0,89,0.00,,---,0.00,VWS V14.01,2013-03-24 23:04:00,
2013-03-24 19:09:00,32.5,29.9,29.61,North,351,1.0,1.0,90,0.00,,---,0.00,VWS V14.01,2013-03-24 23:09:00,
2013-03-24 19:10:00,32.5,29.9,29.62,NE,36,1.0,4.0,90,0.00,,---,0.00,VWS V14.01,2013-03-24 23:10:00,
2013-03-24 19:14:00,32.3,29.7,29.61,NE,54,6.0,6.0,90,0.00,,---,0.00,VWS V14.01,2013-03-24 23:14:00,
2013-03-24 19:19:00,32.2,29.6,29.61,NE,51,4.0,4.0,90,0.00,,---,0.00,VWS V14.01,2013-03-24 23:19:00,
2013-03-24 19:20:00,32.2,29.6,29.60,NE,49,2.0,6.0,90,0.00,,---,0.00,VWS V14.01,2013-03-24 23:20:00,
2013-03-24 19:24:00,32.1,29.8,29.60,NNE,29,4.0,7.0,91,0.00,,---,0.00,VWS V14.01,2013-03-24 23:24:00,
2013-03-24 19:29:00,32.1,29.8,29.59,ENE,62,5.0,5.0,91,0.00,,---,0.00,VWS V14.01,2013-03-24 23:29:00,
2013-03-24 19:30:00,32.1,29.8,29.59,NE,40,4.0,7.0,91,0.00,,---,0.00,VWS V14.01,2013-03-24 23:30:00,
2013-03-24 19:34:00,32.1,29.8,29.59,NNE,31,4.0,6.0,91,0.00,,---,0.00,VWS V14.01,2013-03-24 23:34:00,
2013-03-24 19:39:00,32.1,29.8,29.58,NNE,31,1.0,2.0,91,0.00,,---,0.00,VWS V14.01,2013-03-24 23:39:00,
2013-03-24 19:40:00,32.1,29.8,29.58,NNE,17,2.0,7.0,91,0.00,,---,0.00,VWS V14.01,2013-03-24 23:40:00,
2013-03-24 19:44:00,32.1,29.8,29.58,NE,42,0.0,4.0,91,0.00,,---,0.00,VWS V14.01,2013-03-24 23:44:00,
2013-03-24 19:49:00,32.2,29.9,29.57,NE,34,3.0,8.0,91,0.00,,---,0.00,VWS V14.01,2013-03-24 23:49:00,
2013-03-24 19:50:00,32.2,29.9,29.57,NE,54,8.0,8.0,91,0.00,,---,0.00,VWS V14.01,2013-03-24 23:50:00,
2013-03-24 19:54:00,32.5,29.9,29.57,NE,36,0.0,8.0,90,0.00,,---,0.00,VWS V14.01,2013-03-24 23:54:00,
2013-03-24 19:59:00,33.0,29.6,29.58,SE,124,2.0,4.0,87,0.00,,---,0.00,VWS V14.01,2013-03-24 23:59:00,
2013-03-24 20:00:00,32.9,29.7,29.58,East,85,4.0,8.0,88,0.00,,---,0.00,VWS V14.01,2013-03-25 00:00:00,
2013-03-24 20:04:00,33.5,29.2,29.58,NNE,15,4.0,8.0,84,0.00,,---,0.00,VWS V14.01,2013-03-25 00:04:00,
2013-03-24 20:09:00,33.7,29.4,29.57,SE,129,4.0,5.0,84,0.00,,---,0.00,VWS V14.01,2013-03-25 00:09:00,
2013-03-24 20:10:00,33.7,29.4,29.57,East,94,0.0,8.0,84,0.00,,---,0.00,VWS V14.01,2013-03-25 00:10:00,
2013-03-24 20:14:00,33.8,29.2,29.57,NE,49,1.0,5.0,83,0.00,,---,0.00,VWS V14.01,2013-03-25 00:14:00,
2013-03-24 20:19:00,34.0,29.1,29.57,NE,49,3.0,8.0,82,0.00,,---,0.00,VWS V14.01,2013-03-25 00:19:00,
2013-03-24 20:20:00,34.0,29.1,29.57,NE,45,8.0,10.0,82,0.00,,---,0.00,VWS V14.01,2013-03-25 00:20:00,
2013-03-24 20:24:00,34.2,29.0,29.57,NW,312,0.0,8.0,81,0.00,,---,0.00,VWS V14.01,2013-03-25 00:24:00,
2013-03-24 20:29:00,34.2,29.0,29.57,East,80,0.0,3.0,81,0.00,,---,0.00,VWS V14.01,2013-03-25 00:29:00,
2013-03-24 20:30:00,34.2,29.0,29.57,NNW,328,3.0,8.0,81,0.00,,---,0.00,VWS V14.01,2013-03-25 00:30:00,
2013-03-24 20:34:00,34.3,29.1,29.56,ENE,58,1.0,5.0,81,0.00,,---,0.00,VWS V14.01,2013-03-25 00:34:00,
2013-03-24 20:39:00,34.3,28.8,29.56,NNW,346,2.0,5.0,80,0.00,,---,0.00,VWS V14.01,2013-03-25 00:39:00,
2013-03-24 20:40:00,34.3,28.8,29.56,NE,35,3.0,7.0,80,0.00,,---,0.00,VWS V14.01,2013-03-25 00:40:00,
2013-03-24 20:44:00,34.4,28.6,29.56,NNE,15,6.0,7.0,79,0.00,,---,0.00,VWS V14.01,2013-03-25 00:44:00,
2013-03-24 20:49:00,34.5,28.7,29.56,East,94,6.0,12.0,79,0.00,,---,0.00,VWS V14.01,2013-03-25 00:49:00,
2013-03-24 20:50:00,34.5,28.7,29.56,East,99,12.0,14.0,79,0.00,,---,0.00,VWS V14.01,2013-03-25 00:50:00,
2013-03-24 20:54:00,34.6,28.5,29.56,ENE,65,0.0,12.0,78,0.00,,---,0.00,VWS V14.01,2013-03-25 00:54:00,
2013-03-24 21:00:00,34.6,28.5,29.56,NE,49,4.0,4.0,78,0.00,,---,0.00,VWS V14.01,2013-03-25 01:00:00,
2013-03-24 21:05:00,34.9,28.1,29.56,NE,44,10.0,12.0,76,0.00,,---,0.00,VWS V14.01,2013-03-25 01:05:00,
2013-03-24 21:10:00,34.9,28.1,29.56,ESE,116,5.0,6.0,76,0.00,,---,0.00,VWS V14.01,2013-03-25 01:10:00,
2013-03-24 21:15:00,35.0,27.9,29.56,NE,47,1.0,9.0,75,0.00,,---,0.00,VWS V14.01,2013-03-25 01:15:00,
2013-03-24 21:20:00,35.1,27.7,29.55,ESE,105,1.0,4.0,74,0.00,,---,0.00,VWS V14.01,2013-03-25 01:20:00,
2013-03-24 21:25:00,35.2,28.1,29.56,East,96,4.0,8.0,75,0.00,,---,0.00,VWS V14.01,2013-03-25 01:25:00,
2013-03-24 21:30:00,35.2,27.8,29.55,SE,129,8.0,10.0,74,0.00,,---,0.00,VWS V14.01,2013-03-25 01:30:00,
2013-03-24 21:35:00,35.2,27.8,29.55,NW,323,2.0,13.0,74,0.00,,---,0.00,VWS V14.01,2013-03-25 01:35:00,
2013-03-24 21:40:00,35.3,27.9,29.55,East,82,10.0,12.0,74,0.00,,---,0.00,VWS V14.01,2013-03-25 01:40:00,
2013-03-24 21:45:00,35.3,27.5,29.55,NE,51,4.0,13.0,73,0.00,,---,0.00,VWS V14.01,2013-03-25 01:45:00,
2013-03-24 21:50:00,35.2,27.4,29.55,NE,55,2.0,8.0,73,0.00,,---,0.00,VWS V14.01,2013-03-25 01:50:00,
2013-03-24 21:55:00,35.1,27.7,29.55,NE,43,0.0,13.0,74,0.00,,---,0.00,VWS V14.01,2013-03-25 01:55:00,
2013-03-24 22:00:00,35.1,27.7,29.54,NE,49,6.0,6.0,74,0.00,,---,0.00,VWS V14.01,2013-03-25 02:00:00,
2013-03-24 22:05:00,35.1,27.3,29.53,ESE,113,0.0,14.0,73,0.00,,---,0.00,VWS V14.01,2013-03-25 02:05:00,
2013-03-24 22:10:00,35.1,28.0,29.53,NE,53,3.0,5.0,75,0.00,,---,0.00,VWS V14.01,2013-03-25 02:10:00,
2013-03-24 22:15:00,35.0,27.6,29.54,SW,220,4.0,7.0,74,0.00,,---,0.00,VWS V14.01,2013-03-25 02:15:00,
2013-03-24 22:20:00,35.0,27.6,29.53,NE,42,4.0,4.0,74,0.00,,---,0.00,VWS V14.01,2013-03-25 02:20:00,
2013-03-24 22:25:00,35.1,27.7,29.53,ESE,115,1.0,8.0,74,0.00,,---,0.00,VWS V14.01,2013-03-25 02:25:00,
2013-03-24 22:30:00,35.1,27.7,29.53,NE,40,2.0,6.0,74,0.00,,---,0.00,VWS V14.01,2013-03-25 02:30:00,
2013-03-24 22:35:00,35.1,27.7,29.52,SSE,153,7.0,15.0,74,0.00,,---,0.00,VWS V14.01,2013-03-25 02:35:00,
2013-03-24 22:40:00,35.0,27.6,29.52,SW,234,0.0,5.0,74,0.00,,---,0.00,VWS V14.01,2013-03-25 02:40:00,
2013-03-24 22:45:00,35.0,27.6,29.52,NE,40,0.0,6.0,74,0.00,,---,0.00,VWS V14.01,2013-03-25 02:45:00,
2013-03-24 22:50:00,35.0,27.9,29.51,NE,54,8.0,12.0,75,0.00,,---,0.00,VWS V14.01,2013-03-25 02:50:00,
2013-03-24 22:55:00,35.0,27.6,29.51,South,186,4.0,16.0,74,0.00,,---,0.00,VWS V14.01,2013-03-25 02:55:00,
2013-03-24 23:00:00,34.9,27.8,29.52,NE,36,1.0,4.0,75,0.00,,---,0.00,VWS V14.01,2013-03-25 03:00:00,
2013-03-24 23:05:00,34.9,27.8,29.50,NNW,341,8.0,11.0,75,0.00,,---,0.00,VWS V14.01,2013-03-25 03:05:00,
2013-03-24 23:10:00,34.9,27.8,29.50,NNE,32,5.0,9.0,75,0.00,,---,0.00,VWS V14.01,2013-03-25 03:10:00,
2013-03-24 23:15:00,34.9,27.8,29.50,NE,36,2.0,9.0,75,0.00,,---,0.00,VWS V14.01,2013-03-25 03:15:00,
2013-03-24 23:20:00,34.9,27.8,29.50,WNW,303,0.0,7.0,75,0.00,,---,0.00,VWS V14.01,2013-03-25 03:20:00,
2013-03-24 23:25:00,34.8,28.0,29.49,NW,325,3.0,7.0,76,0.00,,---,0.00,VWS V14.01,2013-03-25 03:25:00,
2013-03-24 23:30:00,34.8,27.7,29.50,NE,43,1.0,2.0,75,0.00,,---,0.00,VWS V14.01,2013-03-25 03:30:00,
2013-03-24 23:35:00,34.9,27.8,29.49,NE,44,8.0,12.0,75,0.00,,---,0.00,VWS V14.01,2013-03-25 03:35:00,
2013-03-24 23:40:00,34.8,27.7,29.49,WNW,287,1.0,2.0,75,0.00,,---,0.00,VWS V14.01,2013-03-25 03:40:00,
2013-03-24 23:45:00,34.7,27.6,29.50,ENE,76,2.0,6.0,75,0.00,,---,0.00,VWS V14.01,2013-03-25 03:45:00,
2013-03-24 23:50:00,34.7,27.9,29.49,NW,315,2.0,2.0,76,0.00,,---,0.00,VWS V14.01,2013-03-25 03:50:00,
2013-03-24 23:55:00,34.6,27.8,29.50,NNE,23,5.0,6.0,76,0.00,,---,0.00,VWS V14.01,2013-03-25 03:55:00,